Regional Weather Roundup
Issued by NWS

Home | Current Version | Previous Version | Text Only | Print | Product List | Glossary On
Versions: 1 2 3 4 5 6 7 8 9 10 11 12 13 14 15 16 17 18 19 20 21 22 23 24 25 26 27 28 29 30 31 32 33 34 35 36 37 38 39 40 41 42 43 44 45 46 47 48 49 50
000
ASHW40 PHFO 030843
RWRHI

WEATHER ROUNDUP FOR HAWAII
NATIONAL WEATHER SERVICE HONOLULU HI
1000 PM HST SUN AUG 02 2015

THIS IS AN AUTOMATED REPORT THAT HAS NOT BEEN QUALITY CONTROLLED.

NOTE..."FAIR" INDICATES FEW OR NO CLOUDS BELOW 12,000 FEET WITH NO
SIGNIFICANT WEATHER AND/OR OBSTRUCTIONS TO VISIBILITY.

* - THESE SITES REPORT LIMITED FIELDS

HIZ001>004-030900-
KAUAI-NIIHAU-

CITY           SKY/WX    TMP DP  RH WIND       PRES   REMARKS
LIHUE APT      PTCLDY    79  69  71 NE18      29.96R
PORT ALLEN*    NOT AVBL
POIPU*           N/A     79 N/A N/A NE9G18      N/A
PRINCEVILLE*     N/A     77 N/A N/A MISG        N/A
KOKOLE POINT*  NOT AVBL
MOLOAA DAIRY*  NOT AVBL
WAIMEA HTS*      N/A    N/A N/A N/A N1          N/A
PUU OPAE*        N/A     70  59  68 NE10G16     N/A
PUU LUA*       NOT AVBL
MAKAHA RIDGE*    N/A    N/A N/A N/A CALM        N/A
$$

HIZ005>011-030900-
OAHU-

CITY           SKY/WX    TMP DP  RH WIND       PRES   REMARKS
HONOLULU       PTCLDY    80  67  64 NE10      29.91S
KALAELOA       CLEAR     77  65  66 VRB3      29.93R
KANEOHE MCB    PTCLDY    78  70  76 E8        29.91S
WHEELER FIELD  CLEAR     73  64  73 VRB1      29.96R
BELLOWS*         N/A    N/A N/A N/A NE14G21     N/A
KAHUKU*          N/A    N/A N/A N/A NE8G15      N/A
WHEELER*       NOT AVBL
WAIANAE HARBOR NOT AVBL
DILLINGHAM*      N/A     75  64  69 MISG        N/A
KAHUKU TRN*      N/A     73  66  78 E8G18       N/A
KAWAILOA*        N/A     72  66  83 E7G15       N/A
KII*             N/A     79  72  78 E15         N/A
MAKUA RANGE*     N/A     79  63  57 E12G21      N/A
OAHU FOREST NW   N/A     66  66 100 CALM        N/A
SCHOFIELD BRK*   N/A     73  66  78 MISG        N/A
SCHOFIELD S*   NOT AVBL
WAIANAE VLY*     N/A     90  77  66 MISG        N/A  HX 102
KUAOKALA*        N/A     73  66  78 NE21G26     N/A
HONOULIUULI*   NOT AVBL
MOKUOLOE IS*     N/A    N/A N/A N/A MISG        N/A
PALEHUA*         N/A     68  63  83 NE12G23     N/A
WAIAWA PHB*    NOT AVBL
$$

HIZ012>013-030900-
MOLOKAI-

CITY           SKY/WX    TMP DP  RH WIND       PRES   REMARKS
MOLOKAI AIRPT  CLEAR     77  68  73 NE15G22   29.91F
KALAUPAPA      NOT AVBL
MAKAPULAPAI*     N/A     79  68  69 E12G18      N/A
MOLOKAI 1*       N/A     77  68  73 NE7G22      N/A
PUU ALII*        N/A     61  61 100 CALM        N/A
$$

HIZ016-030900-
KAHOOLAWE-

CITY           SKY/WX    TMP DP  RH WIND       PRES   REMARKS
KAHOOLAWE*       N/A     72 N/A N/A NE14G22     N/A
HAKIOAWA*        N/A     73  69  86 MISG      30.34R
HONOKANAIA*      N/A     80  69  68 VRB18G32  29.91R
KANELOA*         N/A     77  68  73 N16G33    29.96R
KEALIALALO*      N/A     73  66  78 NE14G30   29.91
LUA MAKIKA*    NOT AVBL
$$

HIZ014>015-030900-
LANAI-

CITY           SKY/WX    TMP DP  RH WIND       PRES   REMARKS
LANAI CITY     FAIR      72  67  84 NE22G30   29.95R
LANAI 1*         N/A     72  66  83 NE20G31     N/A
$$

HIZ017>028-030900-
MAUI-

CITY           SKY/WX    TMP DP  RH WIND       PRES   REMARKS
KAHULUI        PTCLDY    79  68  69 NE8       29.93R
KAPALUA-W MAUI NOT AVBL
HANA AIRPORT   CLOUDY    75  70  83 SW5       29.96R
HANA*            N/A     75 N/A N/A SW5         N/A
HALEAKALA SUMM   N/A     48  21  34 NW7         N/A
MAALAEA BAY*   NOT AVBL
HALEAKALA*     NOT AVBL
KAUPO GAP*       N/A     68  64  88 CALM        N/A
KULA 1*          N/A     57  52  84 E3          N/A
$$

HIZ023>026-030900-
BIG ISLAND OF HAWAII COAST AND LOWER SLOPES-

CITY           SKY/WX    TMP DP  RH WIND       PRES   REMARKS
KAILUA KONA    PTCLDY    84  74  71 S3        29.85R HX  91
HILO           RAIN      73  72  96 W6        29.91S FOG
HONOKAA*       NOT AVBL
KAWAIHAE MWT*    N/A     84 N/A N/A W3          N/A
KAWAIHAE*        N/A     82 N/A N/A SW2         N/A
SOUTH POINT*     N/A     73 N/A N/A NE6         N/A
UPOLU AIRPORT*   N/A    N/A N/A N/A E14G21      N/A
KAMUELA*       CLOUDY    68  66  94 NE13      30.01S
HAKALAU*         N/A     57  57  99 W2G9        N/A
KALOKO-HONOKO*   N/A     82  72  69 SW3       29.85R
PALI 2*          N/A     70  66  88 N8G14       N/A
KEALAKOMO*       N/A     81  66  61 N16G31      N/A
KAUPULEHU*       N/A     77  66  69 NE9         N/A
KAPAPALA*        N/A     71  71  98 VRB1        N/A
LOWER KAHUKU*    N/A     66  66 100 N2          N/A
PUHE CS*         N/A     82  72  69 W2G8        N/A
PUHO CS*         N/A     80  71  74 E1          N/A
PTA KEAMUKU*     N/A     66  63  88 CALM        N/A
WAIKOLOA*        N/A     77  68  73 NE8G18      N/A
$$

HIZ027>028-030900-
BIG ISLAND OF HAWAII INTERIOR AND SUMMMITS-

CITY           SKY/WX    TMP DP  RH WIND       PRES   REMARKS
BRADSHAW FIELD CLOUDY    60  56  88 SE6       30.26S
MK VISITOR CEN   N/A      0   0 100 MISG        N/A
MAUNA KEA*       N/A     41  39  93 SE10        N/A
MAUNA LOA*       N/A     46  45  93 MISG        N/A
MAUNA LOA 1*   NOT AVBL
PTA KIPUKA*      N/A     64  61  88 NE2         N/A
PTA RANGE 17*    N/A     63  54  72 E1G12       N/A
PTA WEST*        N/A     68  63  83 W3          N/A
NENE CABIN*      N/A     57 N/A N/A NE3         N/A
AHUMOA*          N/A     58  53  84 NE3         N/A
PTA PORTABLE*  NOT AVBL
PUU MALI*        N/A     59  55  88 E14         N/A
$$

HIC003-030900-
NORTHWEST ISLANDS-

CITY           SKY/WX    TMP DP  RH WIND       PRES   REMARKS
MIDWAY ISLAND  CLEAR     82  75  78 S8        29.92R
MIDWAY NOS*    NOT AVBL
FRENCH FRIGATE NOT AVBL
$$

PHZ110>124-180-030900-
BUOY REPORTS

STATION/POSITION TIME  TEMP    WIND        PRES    WAVE   SWELL
                       AIR SEA DIR/SP/G            HT/PER HT/DIR
                 (UTC) (F)     (DEG/KT/KT) (MB)    (FT/S) (FT/D)
BUOY 51001       NOT AVBL
BUOY 51101       0800   80 81   70/ 14/ 17 1015.1R   6/11   5/110
BUOY 51100       NOT AVBL
BUOY 51002       0800   81 82   90/ 16/ 17 1010.5R   7/15   5/110
BUOY 51003       0800   82 82   60/ 17/ 21 1011.7R   7/ 9   5
BUOY 51004       0656   81 82   50/ 14/ 16 1010.8    9/14   8/100
BARBERS PT BUOY  NOT AVBL
WAIMEA BAY BUOY  0800      80                N/A     4/ 7   2/ 40
KAILUA BAY BUOY  0800      80                N/A     5/ 9   2/ 90
LANAI BUOY       NOT AVBL
BARBERS PT 2     0800      82                N/A     3/13   2/170
PAUWELA MAUI     0800      79                N/A     6/14   3/ 90
HILO             NOT AVBL
KANEOHE BAY BUOY 0800      79                N/A     5/15   2/ 70
HANALEI KAUAI    0800      81                N/A     6/ 9   2/ 90
KAHULUI HARBOR   0800   79 81   60/  8/ 12 1013.2R
HONOLULU HARBOR  0800   79 80   50/  5/  9 1013.0R
KILO NALU        NOT AVBL
HILO HARBOR      0800   73 77  180/  2/  3 1012.5R
MOKUOLOE         0800   80 84   70/  8/  9 1013.6S
NAWILIWILI       0800   79 83   50/ 13/ 19 1014.1R
WHOTS BUOY       NOT AVBL
BUOY 51028       NOT AVBL
$$

......................KEY........................................
  SKY/WX - SKY CONDITIONS/PRESENT WEATHER
  TMP    - TEMPERATURE IN FAHRENHEIT
  DWPT   - DEWPOINT IN FAHRENHEIT
  RH     - RELATIVE HUMIDITY IN PERCENT
  WIND   - DIRECTION AND SPEED /MPH FOR ISLANDS...KTS FOR BUOYS/
  PRES   - MEAN SEA LEVEL PRESSURE IN INCHES OF HG
  VSB    - VISIBILITY IN MILES
  HX     - HEAT INDEX
  WCI    - WIND CHILL INDEX
  VRB    - VARIABLE WIND DIRECTION
  N/A    - NOT AVAILABLE


USA.gov is the U.S. government's official web portal to all federal, state and local government web resources and services.